STARLINK-3254 (50204 NORAD) Tracking and Keplerian Element Data

This shows tracking and keplerian element data for the satellite.

Feedback or suggestion? Click here.




ElementValue
Catalog50204
NameSTARLINK-3254
Epoch Orbit2399
Epoch Day140.91667824
Epoch Year2022
RAAN353.5571
Inclination53.2197
Eccentricity0.0001922
Argument of Perigee45.0907
Mean Anonmoly188.0104
Mean Motion15.08822245
Decay Rate0.00018176
L11 50204U 21125BA 22140.91667824 .00018176 00000+0 11577-2 0 9999
L22 50204 53.2197 353.5571 0001922 45.0907 188.0104 15.08822245 23990

Live tracking and technical data element details for STARLINK-3254 (NORAD 50204). STARLINK-3254 can be tracked NOW for your location showing map with azimuth and elevation plus other details from your city location.

Track the satellite on the map from your city or location and see movement details for azimuth, elevation, latitude, longitude, range, height, and movement on the map or in text.







IsCatalogInMostPopularTable: catalog: 50204, numindb: 24
Update: records affected: 1



GetName: 50204 STARLINK-3254

Hit Count: updated at: Sun, 22 May 2022 04:09:56 GMT